Location: Poughquag
(41.6090°N, 73.6820°W)
Time: 03:32:19
(UTC-04:00)

S-56A Canister/Altair - Pass Details

Date: 30 May 2020
Orbit: 633 x 2499 km, 38.9° (Epoch: 06 July)

Event Time Altitude Azimuth Distance (km) Brightness Sun altitude
Rises 05:42:22 0° 234° (SW) 3,336 10.1 2.2°
Reaches altitude 10° 05:44:33 10° 229° (SW) 2,563 9.6 2.6°
Maximum altitude 05:50:27 50° 155° (SSE) 1,429 9.0 3.6°
Drops below altitude 10° 05:59:15 10° 83° (E) 3,796 12.8 5.0°
Sets 06:03:11 0° 80° (E) 5,095 13.7 5.7°
